Location: ?????????
(54.7630°N, 39.4991°E)
Time: 08:08:35
(UTC+00:00)

CZ-2D R/B - Pass Details

Date: 14 April 2026
Orbit: 789 x 842 km, 98.9° (Epoch: 13 May)

Event Time Altitude Azimuth Distance (km) Brightness Sun altitude
Rises 23:45:35 0° 20° (NNE) 3,302 6.6 -18.9°
Reaches altitude 10° 23:48:03 10° 27° (NNE) 2,371 5.7 -18.7°
Maximum altitude 23:53:00 42° 98° (E) 1,125 3.1 -18.2°
Enters shadow 23:57:22 13° 167° (SSE) 2,155 4.0 -17.8°
